Time,TemperatureF,DewpointF,PressureIn,WindDirection,WindDirectionDegrees,WindSpeedMPH,WindSpeedGustMPH,Humidity,HourlyPrecipIn,Conditions,Clouds,dailyrainin,SolarRadiationWatts/m^2,SoftwareType,DateUTC
2013-05-17 00:00:00,449.5,99.9,30.03,NNE,27,6.0,17.0,100,0.00,,,0.00,0002,Weather View 32 v70,2013-05-17 07:00:00,
2013-05-17 00:10:00,449.5,99.9,30.03,South,184,1.0,12.0,100,0.00,,,0.00,0001,Weather View 32 v70,2013-05-17 07:10:00,
2013-05-17 00:15:00,449.5,99.9,30.03,SSE,162,2.0,12.0,100,0.00,,,0.00,0001,Weather View 32 v70,2013-05-17 07:15:00,
2013-05-17 00:20:00,449.5,99.9,30.02,WNW,297,1.0,12.0,100,0.00,,,0.00,0001,Weather View 32 v70,2013-05-17 07:20:00,
2013-05-17 00:25:00,449.5,99.9,30.03,South,184,5.0,12.0,100,0.00,,,0.00,0001,Weather View 32 v70,2013-05-17 07:25:00,
2013-05-17 00:30:00,449.5,99.9,30.03,SSW,207,3.0,12.0,100,0.00,,,0.00,0002,Weather View 32 v70,2013-05-17 07:30:00,
2013-05-17 00:36:00,449.5,99.9,30.03,SSE,162,0.0,12.0,100,0.00,,,0.00,0001,Weather View 32 v70,2013-05-17 07:36:00,
2013-05-17 00:45:00,449.5,99.9,30.02,ENE,72,0.0,8.0,100,0.00,,,0.00,0001,Weather View 32 v70,2013-05-17 07:45:00,
2013-05-17 00:50:00,449.5,99.9,30.02,SSE,162,0.0,8.0,100,0.00,,,0.00,0001,Weather View 32 v70,2013-05-17 07:50:00,
2013-05-17 00:55:00,449.5,99.9,30.02,SSE,162,0.0,8.0,100,0.00,,,0.00,0001,Weather View 32 v70,2013-05-17 07:55:00,
2013-05-17 01:05:00,449.5,99.9,30.02,East,94,3.0,8.0,100,0.00,,,0.00,0001,Weather View 32 v70,2013-05-17 08:05:00,
2013-05-17 01:10:00,449.5,99.9,30.02,SSW,207,3.0,8.0,100,0.00,,,0.00,0001,Weather View 32 v70,2013-05-17 08:10:00,
2013-05-17 01:15:00,449.5,99.9,30.02,South,184,2.0,8.0,100,0.00,,,0.00,0001,Weather View 32 v70,2013-05-17 08:15:00,
2013-05-17 01:20:00,449.5,99.9,30.02,SSW,207,0.0,8.0,100,0.00,,,0.00,0001,Weather View 32 v70,2013-05-17 08:20:00,
2013-05-17 01:30:00,449.5,99.9,30.02,NNW,342,3.0,9.0,100,0.00,,,0.00,0002,Weather View 32 v70,2013-05-17 08:30:00,
2013-05-17 01:35:00,449.5,99.9,30.02,SSW,207,4.0,11.0,100,0.00,,,0.00,0001,Weather View 32 v70,2013-05-17 08:35:00,
2013-05-17 01:40:00,449.5,99.9,30.02,South,184,1.0,11.0,100,0.00,,,0.00,0001,Weather View 32 v70,2013-05-17 08:40:00,
2013-05-17 01:45:00,449.5,99.9,30.02,NE,49,0.0,11.0,100,0.00,,,0.00,0002,Weather View 32 v70,2013-05-17 08:45:00,
2013-05-17 01:50:00,449.5,99.9,30.02,SE,139,3.0,11.0,100,0.00,,,0.00,0001,Weather View 32 v70,2013-05-17 08:50:00,
2013-05-17 02:00:00,449.5,99.9,30.02,SSE,162,0.0,11.0,100,0.00,,,0.00,0001,Weather View 32 v70,2013-05-17 09:00:00,
2013-05-17 02:05:00,449.5,99.9,30.02,WSW,252,0.0,11.0,100,0.00,,,0.00,0002,Weather View 32 v70,2013-05-17 09:05:00,
2013-05-17 02:10:00,449.5,99.9,30.01,ESE,117,0.0,11.0,100,0.00,,,0.00,0001,Weather View 32 v70,2013-05-17 09:10:00,
2013-05-17 02:15:00,449.5,99.9,30.01,ESE,117,0.0,11.0,100,0.00,,,0.00,0002,Weather View 32 v70,2013-05-17 09:15:00,
2013-05-17 02:25:00,449.5,99.9,30.01,ESE,117,0.0,11.0,100,0.00,,,0.00,0002,Weather View 32 v70,2013-05-17 09:25:00,
2013-05-17 02:30:00,449.5,99.9,30.01,NNW,342,0.0,11.0,100,0.00,,,0.00,0001,Weather View 32 v70,2013-05-17 09:30:00,
2013-05-17 02:35:00,449.5,99.9,30.01,NNE,27,5.0,11.0,100,0.00,,,0.00,0002,Weather View 32 v70,2013-05-17 09:35:00,
2013-05-17 02:40:00,449.5,99.9,30.01,North,4,0.0,8.0,100,0.00,,,0.00,0002,Weather View 32 v70,2013-05-17 09:40:00,
2013-05-17 02:45:00,449.5,99.9,30.01,SSE,162,1.0,8.0,100,0.00,,,0.00,0002,Weather View 32 v70,2013-05-17 09:45:00,
2013-05-17 02:55:00,449.5,99.9,30.01,ESE,117,0.0,7.0,100,0.00,,,0.00,0001,Weather View 32 v70,2013-05-17 09:55:00,
2013-05-17 03:00:00,449.5,99.9,30.01,South,184,0.0,5.0,100,0.00,,,0.00,0001,Weather View 32 v70,2013-05-17 10:00:00,
2013-05-17 03:05:00,449.5,99.9,30.01,NNW,342,3.0,5.0,100,0.00,,,0.00,0002,Weather View 32 v70,2013-05-17 10:05:00,
2013-05-17 03:10:00,449.5,99.9,30.01,SSE,162,3.0,10.0,100,0.00,,,0.00,0001,Weather View 32 v70,2013-05-17 10:10:00,
2013-05-17 03:15:00,449.5,99.9,30.01,SSW,207,3.0,10.0,100,0.00,,,0.00,0002,Weather View 32 v70,2013-05-17 10:15:00,
2013-05-17 03:25:00,449.5,99.9,30.01,ESE,117,2.0,10.0,100,0.00,,,0.00,0001,Weather View 32 v70,2013-05-17 10:25:00,
2013-05-17 03:30:00,449.5,99.9,30.01,SW,229,2.0,10.0,100,0.00,,,0.00,0001,Weather View 32 v70,2013-05-17 10:30:00,
2013-05-17 03:35:00,449.5,99.9,30.01,SE,139,0.0,10.0,100,0.00,,,0.00,0002,Weather View 32 v70,2013-05-17 10:35:00,
2013-05-17 03:40:00,449.5,99.9,30.01,NW,319,1.0,10.0,100,0.00,,,0.00,0002,Weather View 32 v70,2013-05-17 10:40:00,
2013-05-17 03:45:00,449.5,99.9,30.01,SSW,207,9.0,13.0,100,0.00,,,0.00,0001,Weather View 32 v70,2013-05-17 10:45:00,
2013-05-17 03:55:00,449.5,99.9,30.01,SSE,162,5.0,13.0,100,0.00,,,0.00,0001,Weather View 32 v70,2013-05-17 10:55:00,
2013-05-17 04:00:00,449.5,99.9,30.01,SW,229,3.0,13.0,100,0.00,,,0.00,0001,Weather View 32 v70,2013-05-17 11:00:00,
2013-05-17 04:05:00,449.5,99.9,30.01,SSE,162,2.0,13.0,100,0.00,,,0.00,0002,Weather View 32 v70,2013-05-17 11:05:00,
2013-05-17 04:10:00,449.5,99.9,30.01,West,274,0.0,13.0,100,0.00,,,0.00,0001,Weather View 32 v70,2013-05-17 11:10:00,
2013-05-17 04:20:00,449.5,99.9,30.01,SSW,207,3.0,13.0,100,0.00,,,0.00,0001,Weather View 32 v70,2013-05-17 11:20:00,
2013-05-17 04:25:00,449.5,99.9,30.01,SSE,162,0.0,13.0,100,0.00,,,0.00,0001,Weather View 32 v70,2013-05-17 11:25:00,
2013-05-17 04:30:00,449.5,99.9,30.01,SSW,207,8.0,13.0,100,0.00,,,0.00,0002,Weather View 32 v70,2013-05-17 11:30:00,
2013-05-17 04:35:00,449.5,99.9,30.01,SSW,207,9.0,13.0,100,0.00,,,0.00,0001,Weather View 32 v70,2013-05-17 11:35:00,
2013-05-17 04:45:00,449.5,99.9,30.01,SSW,207,7.0,13.0,100,0.00,,,0.00,0002,Weather View 32 v70,2013-05-17 11:45:00,
2013-05-17 04:50:00,449.5,99.9,30.01,SSW,207,6.0,14.0,100,0.00,,,0.00,0001,Weather View 32 v70,2013-05-17 11:50:00,
2013-05-17 05:00:00,449.5,99.9,30.01,ESE,117,2.0,14.0,100,0.00,,,0.00,0001,Weather View 32 v70,2013-05-17 12:00:00,
2013-05-17 05:10:00,449.5,99.9,30.01,ESE,117,4.0,14.0,100,0.00,,,0.00,0001,Weather View 32 v70,2013-05-17 12:10:00,
2013-05-17 05:15:00,449.5,99.9,30.01,SSE,162,0.0,14.0,100,0.00,,,0.00,0001,Weather View 32 v70,2013-05-17 12:15:00,
2013-05-17 05:20:00,449.5,99.9,30.01,SSW,207,11.0,14.0,100,0.00,,,0.00,0002,Weather View 32 v70,2013-05-17 12:20:00,
2013-05-17 05:25:00,449.5,99.9,30.01,SSW,207,7.0,14.0,100,0.00,,,0.00,0002,Weather View 32 v70,2013-05-17 12:25:00,
2013-05-17 05:30:00,449.5,99.9,30.01,South,184,1.0,15.0,100,0.00,,,0.00,0002,Weather View 32 v70,2013-05-17 12:30:00,
2013-05-17 05:39:00,449.5,99.9,30.01,SSW,207,2.0,15.0,100,0.00,,,0.00,0002,Weather View 32 v70,2013-05-17 12:39:00,
2013-05-17 05:45:00,449.5,99.9,30.01,SE,139,3.0,15.0,100,0.00,,,0.00,0002,Weather View 32 v70,2013-05-17 12:45:00,
2013-05-17 05:50:00,449.5,99.9,30.00,ESE,117,3.0,15.0,100,0.00,,,0.00,0004,Weather View 32 v70,2013-05-17 12:50:00,
2013-05-17 05:55:00,449.5,99.9,30.01,ENE,72,3.0,15.0,100,0.00,,,0.00,0006,Weather View 32 v70,2013-05-17 12:55:00,
2013-05-17 06:05:00,449.5,99.9,30.01,ESE,117,1.0,15.0,100,0.00,,,0.00,0020,Weather View 32 v70,2013-05-17 13:05:00,
2013-05-17 06:10:00,449.5,99.9,30.02,East,94,2.0,15.0,100,0.00,,,0.00,0015,Weather View 32 v70,2013-05-17 13:10:00,
2013-05-17 06:15:00,449.5,99.9,30.02,ENE,72,2.0,15.0,100,0.00,,,0.00,0015,Weather View 32 v70,2013-05-17 13:15:00,
2013-05-17 06:20:00,449.5,99.9,30.02,SE,139,3.0,15.0,100,0.00,,,0.00,0026,Weather View 32 v70,2013-05-17 13:20:00,
2013-05-17 06:25:00,449.5,99.9,30.02,SW,229,3.0,15.0,100,0.00,,,0.00,0024,Weather View 32 v70,2013-05-17 13:25:00,
2013-05-17 06:35:00,449.5,99.9,30.02,SSE,162,2.0,11.0,100,0.00,,,0.00,0042,Weather View 32 v70,2013-05-17 13:35:00,
2013-05-17 06:40:00,449.5,99.9,30.02,ENE,72,1.0,11.0,100,0.00,,,0.00,0057,Weather View 32 v70,2013-05-17 13:40:00,
2013-05-17 06:45:00,449.5,99.9,30.03,ESE,117,0.0,7.0,100,0.00,,,0.00,0055,Weather View 32 v70,2013-05-17 13:45:00,
2013-05-17 06:50:00,449.5,99.9,30.03,ENE,72,1.0,7.0,100,0.00,,,0.00,0084,Weather View 32 v70,2013-05-17 13:50:00,
2013-05-17 07:00:00,449.5,99.9,30.03,ENE,72,3.0,7.0,100,0.00,,,0.00,0188,Weather View 32 v70,2013-05-17 14:00:00,
2013-05-17 07:05:00,449.5,99.9,30.03,ESE,117,3.0,7.0,100,0.00,,,0.00,0121,Weather View 32 v70,2013-05-17 14:05:00,
2013-05-17 07:10:00,449.5,99.9,30.03,WSW,252,4.0,7.0,100,0.00,,,0.00,0091,Weather View 32 v70,2013-05-17 14:10:00,
2013-05-17 07:15:00,449.5,99.9,30.03,WSW,252,4.0,7.0,100,0.00,,,0.00,0091,Weather View 32 v70,2013-05-17 14:15:00,
2013-05-17 07:20:00,449.5,99.9,30.03,ESE,117,3.0,9.0,100,0.00,,,0.00,0168,Weather View 32 v70,2013-05-17 14:20:00,
2013-05-17 07:30:00,449.5,99.9,30.03,East,94,5.0,11.0,100,0.00,,,0.00,0129,Weather View 32 v70,2013-05-17 14:30:00,
2013-05-17 07:35:00,449.5,99.9,30.04,East,94,2.0,11.0,100,0.00,,,0.00,0148,Weather View 32 v70,2013-05-17 14:35:00,
2013-05-17 07:40:00,449.5,99.9,30.04,ESE,117,3.0,11.0,100,0.00,,,0.00,0375,Weather View 32 v70,2013-05-17 14:40:00,
2013-05-17 07:50:00,449.5,99.9,30.04,WNW,297,4.0,11.0,100,0.00,,,0.00,0429,Weather View 32 v70,2013-05-17 14:50:00,
2013-05-17 07:55:00,449.5,99.9,30.04,North,4,6.0,11.0,100,0.00,,,0.00,0277,Weather View 32 v70,2013-05-17 14:55:00,
2013-05-17 08:00:00,449.5,99.9,30.04,ESE,117,3.0,11.0,100,0.00,,,0.00,0342,Weather View 32 v70,2013-05-17 15:00:00,
2013-05-17 08:05:00,449.5,99.9,30.04,North,4,0.0,11.0,100,0.00,,,0.00,0533,Weather View 32 v70,2013-05-17 15:05:00,
2013-05-17 08:10:00,449.5,99.9,30.05,South,184,6.0,11.0,100,0.00,,,0.00,0280,Weather View 32 v70,2013-05-17 15:10:00,
2013-05-17 08:20:00,449.5,99.9,30.04,ENE,72,3.0,12.0,100,0.00,,,0.00,0558,Weather View 32 v70,2013-05-17 15:20:00,
2013-05-17 08:25:00,449.5,99.9,30.05,SE,139,3.0,12.0,100,0.00,,,0.00,0293,Weather View 32 v70,2013-05-17 15:25:00,
2013-05-17 08:30:00,449.5,99.9,30.05,ESE,117,10.0,12.0,100,0.00,,,0.00,0616,Weather View 32 v70,2013-05-17 15:30:00,
2013-05-17 08:35:00,449.5,99.9,30.05,WSW,252,2.0,12.0,100,0.00,,,0.00,0616,Weather View 32 v70,2013-05-17 15:35:00,
2013-05-17 08:40:00,449.5,99.9,30.05,West,274,4.0,14.0,100,0.00,,,0.00,0569,Weather View 32 v70,2013-05-17 15:40:00,
2013-05-17 08:50:00,449.5,99.9,30.05,WSW,252,5.0,14.0,100,0.00,,,0.00,0525,Weather View 32 v70,2013-05-17 15:50:00,
2013-05-17 08:55:00,449.5,99.9,30.05,SE,139,5.0,14.0,100,0.00,,,0.00,0173,Weather View 32 v70,2013-05-17 15:55:00,
2013-05-17 09:00:00,449.5,99.9,30.05,ESE,117,3.0,14.0,100,0.00,,,0.00,0501,Weather View 32 v70,2013-05-17 16:00:00,
2013-05-17 09:05:00,449.5,99.9,30.05,West,274,6.0,14.0,100,0.00,,,0.00,0452,Weather View 32 v70,2013-05-17 16:05:00,
2013-05-17 09:15:00,449.5,99.9,30.04,SSE,162,1.0,14.0,100,0.00,,,0.00,0426,Weather View 32 v70,2013-05-17 16:15:00,
2013-05-17 09:20:00,449.5,99.9,30.04,West,274,9.0,14.0,100,0.00,,,0.00,0513,Weather View 32 v70,2013-05-17 16:20:00,
2013-05-17 09:25:00,449.5,99.9,30.05,West,274,8.0,14.0,100,0.00,,,0.00,0501,Weather View 32 v70,2013-05-17 16:25:00,
2013-05-17 09:30:00,449.5,99.9,30.05,WNW,297,9.0,14.0,100,0.00,,,0.00,0545,Weather View 32 v70,2013-05-17 16:30:00,
2013-05-17 09:35:00,449.5,99.9,30.05,West,274,6.0,15.0,100,0.00,,,0.00,0440,Weather View 32 v70,2013-05-17 16:35:00,
2013-05-17 09:41:00,449.5,99.9,30.05,WSW,252,14.0,15.0,100,0.00,,,0.00,0595,Weather View 32 v70,2013-05-17 16:41:00,
2013-05-17 09:50:00,449.5,99.9,30.05,West,274,6.0,15.0,100,0.00,,,0.00,0616,Weather View 32 v70,2013-05-17 16:50:00,
2013-05-17 09:55:00,449.5,99.9,30.05,SW,229,3.0,15.0,100,0.00,,,0.00,0631,Weather View 32 v70,2013-05-17 16:55:00,
2013-05-17 10:00:00,449.5,99.9,30.05,SSW,207,3.0,15.0,100,0.00,,,0.00,0641,Weather View 32 v70,2013-05-17 17:00:00,
2013-05-17 10:10:00,449.5,99.9,30.05,WNW,297,1.0,15.0,100,0.00,,,0.00,0665,Weather View 32 v70,2013-05-17 17:10:00,
2013-05-17 10:15:00,449.5,99.9,30.05,WSW,252,8.0,15.0,100,0.00,,,0.00,0678,Weather View 32 v70,2013-05-17 17:15:00,
2013-05-17 10:20:00,449.5,99.9,30.04,North,4,10.0,15.0,100,0.00,,,0.00,0686,Weather View 32 v70,2013-05-17 17:20:00,
2013-05-17 10:25:00,449.5,99.9,30.05,West,274,8.0,15.0,100,0.00,,,0.00,0698,Weather View 32 v70,2013-05-17 17:25:00,
2013-05-17 10:30:00,449.5,99.9,30.05,SSW,207,9.0,16.0,100,0.00,,,0.00,0709,Weather View 32 v70,2013-05-17 17:30:00,
2013-05-17 10:40:00,449.5,99.9,30.05,SSW,207,2.0,16.0,100,0.00,,,0.00,0731,Weather View 32 v70,2013-05-17 17:40:00,
2013-05-17 10:45:00,449.5,99.9,30.05,East,94,1.0,16.0,100,0.00,,,0.00,0731,Weather View 32 v70,2013-05-17 17:45:00,
2013-05-17 10:50:00,449.5,99.9,30.05,NW,319,9.0,16.0,100,0.00,,,0.00,0749,Weather View 32 v70,2013-05-17 17:50:00,
2013-05-17 10:55:00,449.5,99.9,30.05,SW,229,3.0,16.0,100,0.00,,,0.00,0756,Weather View 32 v70,2013-05-17 17:55:00,
2013-05-17 11:00:00,449.5,99.9,30.05,South,184,6.0,16.0,100,0.00,,,0.00,0767,Weather View 32 v70,2013-05-17 18:00:00,
2013-05-17 11:10:00,449.5,99.9,30.05,SSE,162,6.0,16.0,100,0.00,,,0.00,0778,Weather View 32 v70,2013-05-17 18:10:00,
2013-05-17 11:15:00,449.5,99.9,30.05,SSW,207,12.0,20.0,100,0.00,,,0.00,0784,Weather View 32 v70,2013-05-17 18:15:00,
2013-05-17 11:20:00,449.5,99.9,30.06,SSW,207,5.0,20.0,100,0.00,,,0.00,0790,Weather View 32 v70,2013-05-17 18:20:00,
2013-05-17 11:25:00,449.5,99.9,30.06,WSW,252,11.0,20.0,100,0.00,,,0.00,0795,Weather View 32 v70,2013-05-17 18:25:00,
2013-05-17 11:30:00,449.5,99.9,30.05,SSE,162,6.0,20.0,100,0.00,,,0.00,0800,Weather View 32 v70,2013-05-17 18:30:00,
2013-05-17 11:40:00,449.5,99.9,30.06,SSW,207,10.0,25.0,100,0.00,,,0.00,0808,Weather View 32 v70,2013-05-17 18:40:00,
2013-05-17 11:45:00,449.5,99.9,30.05,SSE,162,4.0,25.0,100,0.00,,,0.00,0812,Weather View 32 v70,2013-05-17 18:45:00,
2013-05-17 11:50:00,449.5,99.9,30.05,NNE,27,3.0,25.0,100,0.00,,,0.00,0816,Weather View 32 v70,2013-05-17 18:50:00,
2013-05-17 11:55:00,449.5,99.9,30.06,ESE,117,5.0,25.0,100,0.00,,,0.00,0821,Weather View 32 v70,2013-05-17 18:55:00,
2013-05-17 12:00:00,449.5,99.9,30.06,SW,229,5.0,25.0,100,0.00,,,0.00,0825,Weather View 32 v70,2013-05-17 19:00:00,
2013-05-17 12:10:00,449.5,99.9,30.06,South,184,9.0,25.0,100,0.00,,,0.00,0834,Weather View 32 v70,2013-05-17 19:10:00,
2013-05-17 12:15:00,449.5,99.9,30.06,ESE,117,4.0,25.0,100,0.00,,,0.00,0840,Weather View 32 v70,2013-05-17 19:15:00,
2013-05-17 12:20:00,449.5,99.9,30.05,NNE,27,4.0,25.0,100,0.00,,,0.00,0848,Weather View 32 v70,2013-05-17 19:20:00,
2013-05-17 12:25:00,449.5,99.9,30.05,NW,319,8.0,25.0,100,0.00,,,0.00,0848,Weather View 32 v70,2013-05-17 19:25:00,
2013-05-17 12:30:00,449.5,99.9,30.06,NW,319,4.0,25.0,100,0.00,,,0.00,0857,Weather View 32 v70,2013-05-17 19:30:00,
2013-05-17 12:40:00,449.5,99.9,30.06,WNW,297,4.0,19.0,100,0.00,,,0.00,0862,Weather View 32 v70,2013-05-17 19:40:00,
2013-05-17 12:45:00,449.5,99.9,30.06,SSW,207,6.0,16.0,100,0.00,,,0.00,0866,Weather View 32 v70,2013-05-17 19:45:00,
2013-05-17 12:50:00,449.5,99.9,30.06,South,184,2.0,16.0,100,0.00,,,0.00,0866,Weather View 32 v70,2013-05-17 19:50:00,
2013-05-17 12:55:00,449.5,99.9,30.06,South,184,3.0,16.0,100,0.00,,,0.00,0872,Weather View 32 v70,2013-05-17 19:55:00,
2013-05-17 13:00:00,449.5,99.9,30.06,WSW,252,9.0,16.0,100,0.00,,,0.00,0870,Weather View 32 v70,2013-05-17 20:00:00,
2013-05-17 13:10:00,449.5,99.9,30.06,NW,319,3.0,16.0,100,0.00,,,0.00,0877,Weather View 32 v70,2013-05-17 20:10:00,
2013-05-17 13:15:00,449.5,99.9,30.06,South,184,10.0,16.0,100,0.00,,,0.00,0874,Weather View 32 v70,2013-05-17 20:15:00,
2013-05-17 13:20:00,449.5,99.9,30.06,WSW,252,10.0,16.0,100,0.00,,,0.00,0879,Weather View 32 v70,2013-05-17 20:20:00,
2013-05-17 13:25:00,449.5,99.9,30.06,West,274,5.0,16.0,100,0.00,,,0.00,0874,Weather View 32 v70,2013-05-17 20:25:00,
2013-05-17 13:30:00,449.5,99.9,30.06,NNW,342,4.0,16.0,100,0.00,,,0.00,0870,Weather View 32 v70,2013-05-17 20:30:00,
2013-05-17 13:40:00,449.5,99.9,30.06,SE,139,2.0,16.0,100,0.00,,,0.00,0870,Weather View 32 v70,2013-05-17 20:40:00,
2013-05-17 13:45:00,449.5,99.9,30.06,South,184,3.0,16.0,100,0.00,,,0.00,0862,Weather View 32 v70,2013-05-17 20:45:00,
2013-05-17 13:50:00,449.5,99.9,30.06,WSW,252,11.0,16.0,100,0.00,,,0.00,0857,Weather View 32 v70,2013-05-17 20:50:00,
2013-05-17 13:55:00,449.5,99.9,30.06,West,274,4.0,18.0,100,0.00,,,0.00,0852,Weather View 32 v70,2013-05-17 20:55:00,
2013-05-17 14:00:00,449.5,99.9,30.06,West,274,14.0,18.0,100,0.00,,,0.00,0848,Weather View 32 v70,2013-05-17 21:00:00,
2013-05-17 14:05:00,449.5,99.9,30.06,WNW,297,3.0,18.0,100,0.00,,,0.00,0841,Weather View 32 v70,2013-05-17 21:05:00,
2013-05-17 14:15:00,449.5,99.9,30.06,SSW,207,12.0,18.0,100,0.00,,,0.00,0830,Weather View 32 v70,2013-05-17 21:15:00,
2013-05-17 14:20:00,449.5,99.9,30.06,SW,229,11.0,18.0,100,0.00,,,0.00,0825,Weather View 32 v70,2013-05-17 21:20:00,
2013-05-17 14:25:00,449.5,99.9,30.06,SSE,162,4.0,18.0,100,0.00,,,0.00,0817,Weather View 32 v70,2013-05-17 21:25:00,
2013-05-17 14:30:00,449.5,99.9,30.06,SSW,207,12.0,18.0,100,0.00,,,0.00,0812,Weather View 32 v70,2013-05-17 21:30:00,
2013-05-17 14:40:00,449.5,99.9,30.05,North,4,6.0,18.0,100,0.00,,,0.00,0796,Weather View 32 v70,2013-05-17 21:40:00,
2013-05-17 14:45:00,449.5,99.9,30.06,NW,319,4.0,18.0,100,0.00,,,0.00,0788,Weather View 32 v70,2013-05-17 21:45:00,
2013-05-17 14:50:00,449.5,99.9,30.05,SSW,207,2.0,18.0,100,0.00,,,0.00,0782,Weather View 32 v70,2013-05-17 21:50:00,
2013-05-17 14:55:00,449.5,99.9,30.06,SW,229,9.0,17.0,100,0.00,,,0.00,0776,Weather View 32 v70,2013-05-17 21:55:00,
2013-05-17 15:05:00,449.5,99.9,30.05,SE,139,7.0,17.0,100,0.00,,,0.00,0761,Weather View 32 v70,2013-05-17 22:05:00,
2013-05-17 15:10:00,449.5,99.9,30.05,SSW,207,11.0,20.0,100,0.00,,,0.00,0754,Weather View 32 v70,2013-05-17 22:10:00,
2013-05-17 15:15:00,449.5,99.9,30.05,ENE,72,4.0,20.0,100,0.00,,,0.00,0746,Weather View 32 v70,2013-05-17 22:15:00,
2013-05-17 15:20:00,449.5,99.9,30.05,SW,229,4.0,20.0,100,0.00,,,0.00,0738,Weather View 32 v70,2013-05-17 22:20:00,
2013-05-17 15:25:00,449.5,99.9,30.05,South,184,5.0,20.0,100,0.00,,,0.00,0729,Weather View 32 v70,2013-05-17 22:25:00,
2013-05-17 15:30:00,449.5,99.9,30.05,SE,139,1.0,20.0,100,0.00,,,0.00,0724,Weather View 32 v70,2013-05-17 22:30:00,
2013-05-17 15:40:00,449.5,99.9,30.05,NW,319,7.0,20.0,100,0.00,,,0.00,0708,Weather View 32 v70,2013-05-17 22:40:00,
2013-05-17 15:45:00,449.5,99.9,30.05,NW,319,4.0,20.0,100,0.00,,,0.00,0697,Weather View 32 v70,2013-05-17 22:45:00,
2013-05-17 15:55:00,449.5,99.9,30.05,SE,139,6.0,24.0,100,0.00,,,0.00,0682,Weather View 32 v70,2013-05-17 22:55:00,
2013-05-17 16:00:00,449.5,99.9,30.05,NNE,27,9.0,24.0,100,0.00,,,0.00,0670,Weather View 32 v70,2013-05-17 23:00:00,
2013-05-17 16:10:00,449.5,99.9,30.06,WNW,297,6.0,24.0,100,0.00,,,0.00,0652,Weather View 32 v70,2013-05-17 23:10:00,
2013-05-17 16:15:00,449.5,99.9,30.06,WSW,252,13.0,24.0,100,0.00,,,0.00,0641,Weather View 32 v70,2013-05-17 23:15:00,
2013-05-17 16:20:00,449.5,99.9,30.06,WNW,297,6.0,24.0,100,0.00,,,0.00,0629,Weather View 32 v70,2013-05-17 23:20:00,
2013-05-17 16:25:00,449.5,99.9,30.06,West,274,2.0,24.0,100,0.00,,,0.00,0617,Weather View 32 v70,2013-05-17 23:25:00,
2013-05-17 16:35:00,449.5,99.9,30.06,South,184,5.0,24.0,100,0.00,,,0.00,0589,Weather View 32 v70,2013-05-17 23:35:00,
2013-05-17 16:40:00,449.5,99.9,30.06,WSW,252,2.0,24.0,100,0.00,,,0.00,0579,Weather View 32 v70,2013-05-17 23:40:00,
2013-05-17 16:45:00,449.5,99.9,30.06,NNE,27,1.0,24.0,100,0.00,,,0.00,0567,Weather View 32 v70,2013-05-17 23:45:00,
2013-05-17 16:50:00,449.5,99.9,30.06,NW,319,7.0,17.0,100,0.00,,,0.00,0554,Weather View 32 v70,2013-05-17 23:50:00,
2013-05-17 16:55:00,449.5,99.9,30.06,NW,319,10.0,17.0,100,0.00,,,0.00,0540,Weather View 32 v70,2013-05-17 23:55:00,
2013-05-17 17:05:00,449.5,99.9,30.06,WSW,252,7.0,18.0,100,0.00,,,0.00,0511,Weather View 32 v70,2013-05-18 00:05:00,
2013-05-17 17:10:00,449.5,99.9,30.06,South,184,12.0,18.0,100,0.00,,,0.00,0500,Weather View 32 v70,2013-05-18 00:10:00,
2013-05-17 17:15:00,449.5,99.9,30.06,West,274,10.0,20.0,100,0.00,,,0.00,0487,Weather View 32 v70,2013-05-18 00:15:00,
2013-05-17 17:20:00,449.5,99.9,30.06,WNW,297,4.0,20.0,100,0.00,,,0.00,0473,Weather View 32 v70,2013-05-18 00:20:00,
2013-05-17 17:25:00,449.5,99.9,30.06,SSW,207,3.0,20.0,100,0.00,,,0.00,0460,Weather View 32 v70,2013-05-18 00:25:00,
2013-05-17 17:35:00,449.5,99.9,30.06,WSW,252,5.0,20.0,100,0.00,,,0.00,0433,Weather View 32 v70,2013-05-18 00:35:00,
2013-05-17 17:40:00,449.5,99.9,30.06,West,274,9.0,20.0,100,0.00,,,0.00,0419,Weather View 32 v70,2013-05-18 00:40:00,
2013-05-17 17:45:00,449.5,99.9,30.06,WSW,252,4.0,20.0,100,0.00,,,0.00,0408,Weather View 32 v70,2013-05-18 00:45:00,
2013-05-17 17:50:00,449.5,99.9,30.06,WNW,297,6.0,20.0,100,0.00,,,0.00,0394,Weather View 32 v70,2013-05-18 00:50:00,
2013-05-17 17:55:00,449.5,99.9,30.06,ESE,117,3.0,20.0,100,0.00,,,0.00,0382,Weather View 32 v70,2013-05-18 00:55:00,
2013-05-17 18:00:00,449.5,99.9,30.06,North,4,3.0,20.0,100,0.00,,,0.00,0367,Weather View 32 v70,2013-05-18 01:00:00,
2013-05-17 18:10:00,449.5,99.9,30.06,WNW,297,6.0,20.0,100,0.00,,,0.00,0343,Weather View 32 v70,2013-05-18 01:10:00,
2013-05-17 18:15:00,449.5,99.9,30.06,SSW,207,1.0,20.0,100,0.00,,,0.00,0330,Weather View 32 v70,2013-05-18 01:15:00,
2013-05-17 18:20:00,449.5,99.9,30.06,ESE,117,4.0,16.0,100,0.00,,,0.00,0317,Weather View 32 v70,2013-05-18 01:20:00,
2013-05-17 18:25:00,449.5,99.9,30.06,SE,139,4.0,16.0,100,0.00,,,0.00,0302,Weather View 32 v70,2013-05-18 01:25:00,
2013-05-17 18:30:00,449.5,99.9,30.06,NNW,342,3.0,15.0,100,0.00,,,0.00,0290,Weather View 32 v70,2013-05-18 01:30:00,
2013-05-17 18:40:00,449.5,99.9,30.07,SW,229,2.0,15.0,100,0.00,,,0.00,0261,Weather View 32 v70,2013-05-18 01:40:00,
2013-05-17 18:45:00,449.5,99.9,30.07,WNW,297,4.0,15.0,100,0.00,,,0.00,0246,Weather View 32 v70,2013-05-18 01:45:00,
2013-05-17 18:50:00,449.5,99.9,30.07,SW,229,4.0,15.0,100,0.00,,,0.00,0232,Weather View 32 v70,2013-05-18 01:50:00,
2013-05-17 18:55:00,449.5,99.9,30.07,SW,229,3.0,15.0,100,0.00,,,0.00,0217,Weather View 32 v70,2013-05-18 01:55:00,
2013-05-17 19:00:00,449.5,99.9,30.07,West,274,1.0,15.0,100,0.00,,,0.00,0201,Weather View 32 v70,2013-05-18 02:00:00,
2013-05-17 19:05:00,449.5,99.9,30.07,SW,229,4.0,15.0,100,0.00,,,0.00,0187,Weather View 32 v70,2013-05-18 02:05:00,
2013-05-17 19:15:00,449.5,99.9,30.08,WNW,297,4.0,15.0,100,0.00,,,0.00,0159,Weather View 32 v70,2013-05-18 02:15:00,
2013-05-17 19:20:00,449.5,99.9,30.08,SSE,162,3.0,15.0,100,0.00,,,0.00,0142,Weather View 32 v70,2013-05-18 02:20:00,
2013-05-17 19:25:00,449.5,99.9,30.08,SSW,207,6.0,15.0,100,0.00,,,0.00,0036,Weather View 32 v70,2013-05-18 02:25:00,
2013-05-17 19:30:00,449.5,99.9,30.08,NW,319,1.0,12.0,100,0.00,,,0.00,0033,Weather View 32 v70,2013-05-18 02:30:00,
2013-05-17 19:35:00,449.5,99.9,30.08,SE,139,0.0,12.0,100,0.00,,,0.00,0030,Weather View 32 v70,2013-05-18 02:35:00,
2013-05-17 19:40:00,449.5,99.9,30.08,East,94,1.0,12.0,100,0.00,,,0.00,0027,Weather View 32 v70,2013-05-18 02:40:00,
2013-05-17 19:47:00,449.5,99.9,30.08,WSW,252,4.0,15.0,100,0.00,,,0.00,0024,Weather View 32 v70,2013-05-18 02:47:00,
2013-05-17 19:55:00,449.5,99.9,30.08,SE,139,4.0,15.0,100,0.00,,,0.00,0017,Weather View 32 v70,2013-05-18 02:55:00,
2013-05-17 20:00:00,449.5,99.9,30.08,SW,229,5.0,15.0,100,0.00,,,0.00,0014,Weather View 32 v70,2013-05-18 03:00:00,
2013-05-17 20:05:00,449.5,99.9,30.08,SW,229,3.0,15.0,100,0.00,,,0.00,0010,Weather View 32 v70,2013-05-18 03:05:00,
2013-05-17 20:10:00,449.5,99.9,30.08,East,94,3.0,15.0,100,0.00,,,0.00,0006,Weather View 32 v70,2013-05-18 03:10:00,
2013-05-17 20:20:00,449.5,99.9,30.09,SSE,162,4.0,15.0,100,0.00,,,0.00,0003,Weather View 32 v70,2013-05-18 03:20:00,
2013-05-17 20:25:00,449.5,99.9,30.08,NNW,342,2.0,15.0,100,0.00,,,0.00,0002,Weather View 32 v70,2013-05-18 03:25:00,
2013-05-17 20:30:00,449.5,99.9,30.09,SE,139,0.0,15.0,100,0.00,,,0.00,0002,Weather View 32 v70,2013-05-18 03:30:00,
2013-05-17 20:35:00,449.5,99.9,30.09,South,184,3.0,15.0,100,0.00,,,0.00,0002,Weather View 32 v70,2013-05-18 03:35:00,
2013-05-17 20:40:00,449.5,99.9,30.09,SE,139,3.0,15.0,100,0.00,,,0.00,0002,Weather View 32 v70,2013-05-18 03:40:00,
2013-05-17 20:45:00,449.5,99.9,30.09,ESE,117,0.0,9.0,100,0.00,,,0.00,0002,Weather View 32 v70,2013-05-18 03:45:00,
2013-05-17 20:50:00,449.5,99.9,30.09,ESE,117,3.0,9.0,100,0.00,,,0.00,0002,Weather View 32 v70,2013-05-18 03:50:00,
2013-05-17 21:00:00,449.5,99.9,30.10,SE,139,4.0,12.0,100,0.00,,,0.00,0002,Weather View 32 v70,2013-05-18 04:00:00,
2013-05-17 21:05:00,449.5,99.9,30.10,ESE,117,4.0,12.0,100,0.00,,,0.00,0002,Weather View 32 v70,2013-05-18 04:05:00,
2013-05-17 21:10:00,449.5,99.9,30.10,SE,139,7.0,12.0,100,0.00,,,0.00,0002,Weather View 32 v70,2013-05-18 04:10:00,
2013-05-17 21:15:00,449.5,99.9,30.10,SE,139,3.0,12.0,100,0.00,,,0.00,0002,Weather View 32 v70,2013-05-18 04:15:00,
2013-05-17 21:20:00,449.5,99.9,30.10,ESE,117,0.0,12.0,100,0.00,,,0.00,0002,Weather View 32 v70,2013-05-18 04:20:00,
2013-05-17 21:25:00,449.5,99.9,30.10,ESE,117,1.0,12.0,100,0.00,,,0.00,0002,Weather View 32 v70,2013-05-18 04:25:00,
2013-05-17 21:30:00,449.5,99.9,30.10,NW,319,0.0,12.0,100,0.00,,,0.00,0002,Weather View 32 v70,2013-05-18 04:30:00,
2013-05-17 21:35:00,449.5,99.9,30.10,ESE,117,3.0,12.0,100,0.00,,,0.00,0002,Weather View 32 v70,2013-05-18 04:35:00,
2013-05-17 21:40:00,449.5,99.9,30.11,NE,49,0.0,12.0,100,0.00,,,0.00,0001,Weather View 32 v70,2013-05-18 04:40:00,
2013-05-17 21:45:00,449.5,99.9,30.11,South,184,3.0,12.0,100,0.00,,,0.00,0002,Weather View 32 v70,2013-05-18 04:45:00,
2013-05-17 21:50:00,449.5,99.9,30.11,SSE,162,0.0,12.0,100,0.00,,,0.00,0002,Weather View 32 v70,2013-05-18 04:50:00,
2013-05-17 21:55:00,449.5,99.9,30.11,South,184,1.0,9.0,100,0.00,,,0.00,0002,Weather View 32 v70,2013-05-18 04:55:00,
2013-05-17 22:00:00,449.5,99.9,30.11,SSW,207,0.0,9.0,100,0.00,,,0.00,0001,Weather View 32 v70,2013-05-18 05:00:00,
2013-05-17 22:10:00,449.5,99.9,30.11,SE,139,6.0,9.0,100,0.00,,,0.00,0002,Weather View 32 v70,2013-05-18 05:10:00,
2013-05-17 22:20:00,449.5,99.9,30.11,SSE,162,0.0,7.0,100,0.00,,,0.00,0002,Weather View 32 v70,2013-05-18 05:20:00,
2013-05-17 22:25:00,449.5,99.9,30.11,South,184,0.0,7.0,100,0.00,,,0.00,0001,Weather View 32 v70,2013-05-18 05:25:00,
2013-05-17 22:30:00,449.5,99.9,30.11,SW,229,0.0,7.0,100,0.00,,,0.00,0001,Weather View 32 v70,2013-05-18 05:30:00,
2013-05-17 22:35:00,449.5,99.9,30.11,SE,139,0.0,7.0,100,0.00,,,0.00,0001,Weather View 32 v70,2013-05-18 05:35:00,
2013-05-17 22:40:00,449.5,99.9,30.11,NNW,342,0.0,7.0,100,0.00,,,0.00,0001,Weather View 32 v70,2013-05-18 05:40:00,
2013-05-17 22:45:00,449.5,99.9,30.11,West,274,0.0,7.0,100,0.00,,,0.00,0001,Weather View 32 v70,2013-05-18 05:45:00,
2013-05-17 22:50:00,449.5,99.9,30.11,SSW,207,0.0,7.0,100,0.00,,,0.00,0002,Weather View 32 v70,2013-05-18 05:50:00,
2013-05-17 23:00:00,449.5,99.9,30.11,SE,139,0.0,7.0,100,0.00,,,0.00,0001,Weather View 32 v70,2013-05-18 06:00:00,
2013-05-17 23:05:00,449.5,99.9,30.11,North,4,0.0,6.0,100,0.00,,,0.00,0001,Weather View 32 v70,2013-05-18 06:05:00,
2013-05-17 23:10:00,449.5,99.9,30.11,SE,139,0.0,6.0,100,0.00,,,0.00,0001,Weather View 32 v70,2013-05-18 06:10:00,
2013-05-17 23:15:00,449.5,99.9,30.11,SW,229,1.0,4.0,100,0.00,,,0.00,0001,Weather View 32 v70,2013-05-18 06:15:00,
2013-05-17 23:20:00,449.5,99.9,30.11,SSE,162,0.0,4.0,100,0.00,,,0.00,0002,Weather View 32 v70,2013-05-18 06:20:00,
2013-05-17 23:30:00,449.5,99.9,30.11,ESE,117,4.0,9.0,100,0.00,,,0.00,0002,Weather View 32 v70,2013-05-18 06:30:00,
2013-05-17 23:35:00,449.5,99.9,30.11,SW,229,4.0,9.0,100,0.00,,,0.00,0001,Weather View 32 v70,2013-05-18 06:35:00,
2013-05-17 23:40:00,449.5,99.9,30.11,East,94,0.0,9.0,100,0.00,,,0.00,0002,Weather View 32 v70,2013-05-18 06:40:00,
2013-05-17 23:45:00,449.5,99.9,30.11,NE,49,3.0,9.0,100,0.00,,,0.00,0001,Weather View 32 v70,2013-05-18 06:45:00,
2013-05-17 23:50:00,449.5,99.9,30.11,SSW,207,6.0,9.0,100,0.00,,,0.00,0001,Weather View 32 v70,2013-05-18 06:50:00,